[[{"header":{"parameterUnit":"m.s-1","parameterCategory":1,"la1":30.2991,"la2":30.254,"lo1":-89.0895,"lo2":-89.0444,"dy":0.0017,"dx":0.0017,"nx":28,"ny":28,"refTime":"2025-04-25T03:00:00:Z","depth":0,"parameterNumber":2,"parameterNumberName":"U-component_of_WINDS"},"data":[0,0,0,0,0,0,0,0,0,0,0,0,0,0,0,0,0,0,0,0,0,0,0,0,0,0,0,0,0,0,0,0,0,0,0,0,0,0,0,0,0,0,0,0,0,0,0,0,0,0,0,0,0,0,0,0,0,0,-1.7565,-1.7566,0,-1.758,-1.758,-1.758,-1.7558,-1.7558,-1.7557,-1.7556,-1.7572,-1.7573,-1.7574,0,0,0,0,0,0,0,0,0,0,0,0,0,-1.7522,-1.7523,-1.7565,-1.7566,-1.7566,-1.758,-1.758,-1.758,-1.7558,-1.7558,-1.7557,-1.7556,-1.7572,-1.7573,-1.7575,0,0,0,0,0,0,0,0,0,0,0,0,0,-1.7539,-1.7523,-1.7565,-1.7557,-1.7556,-1.758,-1.758,-1.758,-1.7559,-1.7557,-1.7556,-1.7555,-1.7571,-1.7573,-1.7575,-1.7608,0,0,-1.758,-1.7581,0,0,0,0,0,0,0,0,-1.7538,-1.7541,-1.7558,-1.7557,-1.7557,-1.7566,-1.7571,-1.759,-1.7559,-1.7558,-1.7556,-1.7555,-1.7571,-1.7573,-1.7578,-1.7609,-1.761,-1.758,-1.7581,-1.7582,-1.7582,0,0,0,0,0,0,0,-1.7537,-1.754,-1.7571,-1.7558,-1.7557,-1.7553,-1.7554,-1.7574,-1.7571,-1.7558,-1.7556,-1.7558,-1.7571,-1.7576,-1.7578,-1.761,-1.758,-1.7582,-1.7583,-1.7583,-1.767,-1.7671,0,0,0,0,0,0,-1.7537,-1.7539,-1.7571,-1.7572,-1.7544,-1.7555,-1.7556,-1.7564,-1.757,-1.757,-1.7559,-1.7557,-1.7574,-1.7576,-1.7579,-1.7618,-1.7582,-1.7583,-1.7584,-1.7668,-1.767,-1.7671,0,0,0,0,0,0,-1.7536,-1.754,-1.757,-1.7555,-1.7559,-1.7557,-1.7566,-1.7565,-1.7571,-1.7571,-1.7571,-1.7565,-1.7573,-1.7576,-1.7601,-1.7618,-1.7584,-1.7586,-1.7667,-1.7669,-1.7671,-1.7697,0,0,0,0,0,0,-1.7535,-1.7539,-1.7551,-1.7555,-1.7559,-1.7591,-1.7567,-1.7566,-1.7574,-1.7571,-1.7577,-1.7577,-1.7573,-1.7599,-1.7603,-1.762,-1.7587,-1.7665,-1.7668,-1.767,-1.7694,-1.7699,-1.7703,0,0,0,0,0,-1.7533,-1.7558,-1.7552,-1.7556,-1.7574,-1.7592,-1.7595,-1.7588,-1.7575,-1.7587,-1.7588,-1.7577,-1.7616,-1.7601,-1.7606,-1.7624,-1.7664,-1.7667,-1.767,-1.7692,-1.7698,-1.7703,0,0,0,0,0,0,-1.7556,-1.7559,-1.7552,-1.7579,-1.7585,-1.7589,-1.7604,-1.7595,-1.7606,-1.7603,-1.7596,-1.7598,-1.7624,-1.7627,-1.761,-1.7657,-1.7638,-1.7642,-1.7653,-1.7659,-1.7664,-1.7662,-1.7589,0,0,0,0,0,-1.7565,-1.7579,-1.758,-1.7604,-1.7608,-1.7605,-1.7613,-1.7608,-1.7615,-1.7618,-1.762,-1.7628,-1.7642,-1.7651,-1.7664,-1.7696,-1.7696,-1.771,-1.7715,-1.7719,-1.7722,-1.7739,-1.7744,-1.7681,-1.7681,-1.7681,0,0,-1.7582,-1.7585,-1.7594,-1.7609,-1.7613,-1.7629,-1.7608,-1.7625,-1.7636,-1.762,-1.7643,-1.7646,-1.7654,-1.7682,-1.7695,-1.7685,-1.774,-1.7722,-1.7725,-1.7726,-1.7742,-1.7748,-1.7753,-1.7683,-1.7682,-1.7682,0,0,-1.762,-1.7624,-1.7644,-1.765,-1.7657,-1.7655,-1.7661,-1.7665,-1.7666,-1.7689,-1.7678,-1.7692,-1.7717,-1.7723,-1.7729,-1.7773,-1.7763,-1.7778,-1.7801,-1.7818,-1.7823,-1.7827,-1.7842,-1.7847,-1.7781,-1.7781,-1.7781,0,-1.7641,-1.7662,-1.7656,-1.7674,-1.7681,-1.7668,-1.7688,-1.7694,-1.7706,-1.7711,-1.7701,-1.7732,-1.7736,-1.7766,-1.7776,-1.7783,-1.7788,-1.7776,-1.7822,-1.7827,-1.7831,-1.7845,-1.785,-1.7783,-1.7782,-1.7782,-1.7782,0,-1.7687,-1.7702,-1.7718,-1.7728,-1.7738,-1.7757,-1.7754,-1.7765,-1.776,-1.776,-1.7784,-1.779,-1.7804,-1.7811,-1.7806,-1.784,-1.7834,-1.7823,-1.7804,-1.7838,-1.7851,-1.7857,-1.7785,-1.7784,-1.7784,-1.7784,0,0,-1.7737,-1.7746,-1.7752,-1.7757,-1.7765,-1.7777,-1.7797,-1.781,-1.7819,-1.7828,-1.7844,-1.7866,-1.7856,-1.7864,-1.786,-1.7875,-1.7909,-1.7863,-1.7863,-1.787,-1.7946,-1.7952,-1.7959,-1.7903,-1.7904,-1.7905,-1.7945,0,-1.7775,-1.7807,-1.7803,-1.7834,-1.7848,-1.7838,-1.7855,-1.7862,-1.7864,-1.7877,-1.7879,-1.7894,-1.788,-1.7885,-1.7899,-1.7901,-1.7923,-1.7899,-1.7918,-1.7918,-1.7914,-1.7966,-1.7972,-1.8009,-1.795,-1.7951,-1.7951,0,-1.7822,-1.7833,-1.7865,-1.7871,-1.7877,-1.7892,-1.7905,-1.7918,-1.7927,-1.7927,-1.7936,-1.793,-1.7951,-1.7933,-1.7961,-1.7944,-1.7953,-1.7955,-1.7956,-1.7956,-1.7935,-1.7965,-1.8021,-1.8026,-1.7959,-1.7959,-1.7958,0,-1.7855,-1.7877,-1.7899,-1.7904,-1.7913,-1.7924,-1.7928,-1.7936,-1.7944,-1.7956,-1.7962,-1.7976,-1.7983,-1.7995,-1.7994,-1.7981,-1.8022,-1.8004,-1.8023,-1.8023,-1.803,-1.8029,-1.8086,-1.8038,-1.8038,-1.8038,-1.8038,0,-1.7896,-1.7916,-1.7914,-1.7927,-1.795,-1.7946,-1.7969,-1.7972,-1.798,-1.7994,-1.7987,-1.8001,-1.7999,-1.8014,-1.8013,-1.8037,-1.8041,-1.8041,-1.804,-1.8041,-1.804,-1.8044,-1.8041,-1.804,-1.8039,-1.8039,-1.8039,0,-1.7935,-1.7934,-1.7958,-1.7964,-1.7967,-1.7983,-1.7989,-1.8002,-1.8004,-1.8022,-1.8027,-1.8029,-1.8046,-1.8046,-1.8066,-1.8066,-1.8094,-1.8091,-1.809,-1.8089,-1.8107,-1.8105,-1.8167,-1.8175,-1.8124,-1.8124,-1.8124,0,-1.796,-1.7975,-1.7983,-1.7992,-1.7997,-1.8012,-1.802,-1.8019,-1.8028,-1.804,-1.8052,-1.8068,-1.8081,-1.8109,-1.8112,-1.8128,-1.8124,-1.8145,-1.8126,-1.8126,-1.8123,-1.8121,-1.8123,-1.8148,-1.8149,-1.8149,-1.815,0,-1.8004,-1.8004,-1.8016,-1.8029,-1.804,-1.805,-1.806,-1.8068,-1.8067,-1.8079,-1.8096,-1.8105,-1.8126,-1.8142,-1.8157,-1.8162,-1.8156,-1.8156,-1.8161,-1.816,-1.8158,-1.8158,-1.8098,-1.8154,-1.8153,-1.8153,-1.8153,-1.8153,-1.8036,-1.8049,-1.8057,-1.8072,-1.8079,-1.8088,-1.8101,-1.8104,-1.8118,-1.8133,-1.8132,-1.8151,-1.8161,-1.818,-1.8187,-1.8202,-1.8195,-1.8203,-1.8204,-1.8205,-1.8207,-1.8158,-1.8206,-1.8205,-1.8205,-1.8205,-1.8205,0,-1.808,-1.8084,-1.8098,-1.8111,-1.8123,-1.8117,-1.8127,-1.8138,-1.8154,-1.8164,-1.8176,-1.8196,-1.8212,-1.8218,-1.8234,-1.8245,-1.8243,-1.8249,-1.8247,-1.8249,-1.8213,-1.8206,-1.8251,-1.8251,-1.8251,-1.8251,-1.8251,-1.8251,-1.8103,-1.8124,-1.8125,-1.815,-1.8156,-1.8173,-1.818,-1.8189,-1.8196,-1.8218,-1.8231,-1.8235,-1.8244,-1.8261,-1.8275,-1.8277,-1.8282,-1.829,-1.829,-1.8256,-1.8251,-1.8247,-1.8241,-1.8292,-1.8292,-1.8324,-1.8325,-1.8325]},{"header":{"parameterUnit":"m.s-1","parameterCategory":1,"la1":30.2991,"la2":30.254,"lo1":-89.0895,"lo2":-89.0444,"dy":0.0017,"dx":0.0017,"nx":28,"ny":28,"refTime":"2025-04-25T03:00:00:Z","depth":0,"parameterNumber":3,"parameterNumberName":"V-component_of_WINDS"},"data":[0,0,0,0,0,0,0,0,0,0,0,0,0,0,0,0,0,0,0,0,0,0,0,0,0,0,0,0,0,0,0,0,0,0,0,0,0,0,0,0,0,0,0,0,0,0,0,0,0,0,0,0,0,0,0,0,0,0,3.4094,3.4094,0,3.41,3.41,3.41,3.4143,3.4144,3.4145,3.4146,3.4146,3.4145,3.4144,0,0,0,0,0,0,0,0,0,0,0,0,0,3.4115,3.4114,3.4094,3.4094,3.4094,3.41,3.41,3.41,3.4142,3.4144,3.4145,3.4146,3.4146,3.4145,3.4144,0,0,0,0,0,0,0,0,0,0,0,0,0,3.4111,3.4114,3.4094,3.4116,3.4118,3.41,3.41,3.41,3.4142,3.4144,3.4145,3.4147,3.4147,3.4145,3.4144,3.4102,0,0,3.4139,3.4138,0,0,0,0,0,0,0,0,3.4111,3.411,3.4113,3.4114,3.4117,3.4122,3.4107,3.41,3.4142,3.4133,3.4146,3.4148,3.4136,3.4136,3.4133,3.4102,3.4102,3.4139,3.4138,3.4137,3.4137,0,0,0,0,0,0,0,3.4112,3.411,3.4096,3.4113,3.4115,3.4124,3.4125,3.4106,3.4125,3.4134,3.4137,3.4137,3.4138,3.4134,3.4133,3.4102,3.4139,3.4138,3.4137,3.4136,3.4039,3.4037,0,0,0,0,0,0,3.4109,3.411,3.4096,3.4096,3.4118,3.4122,3.4124,3.4119,3.4126,3.4128,3.4136,3.4139,3.4136,3.4135,3.4134,3.4087,3.4137,3.4136,3.4135,3.404,3.4038,3.4037,0,0,0,0,0,0,3.411,3.4108,3.4095,3.4104,3.4103,3.412,3.4114,3.4118,3.4115,3.4127,3.413,3.4129,3.4137,3.4136,3.411,3.4087,3.4135,3.4134,3.4042,3.404,3.4037,3.3991,0,0,0,0,0,0,3.411,3.4108,3.4093,3.4104,3.4103,3.4074,3.4113,3.4117,3.4113,3.4117,3.4122,3.4124,3.4139,3.4112,3.4109,3.4086,3.4133,3.4045,3.4041,3.4038,3.3995,3.3988,3.3981,0,0,0,0,0,3.4111,3.4079,3.4092,3.409,3.4085,3.4072,3.4071,3.409,3.4111,3.4096,3.4104,3.4124,3.409,3.4109,3.4106,3.4082,3.4046,3.4042,3.4038,3.3998,3.3989,3.3981,0,0,0,0,0,0,3.4063,3.408,3.4096,3.4066,3.4068,3.4079,3.4061,3.408,3.4074,3.4078,3.4099,3.41,3.4071,3.4074,3.4095,3.4043,3.4072,3.4067,3.4042,3.4034,3.4027,3.4027,3.4132,0,0,0,0,0,3.405,3.4039,3.4054,3.4026,3.4027,3.4044,3.4039,3.4053,3.4054,3.4055,3.4061,3.406,3.4049,3.4042,3.4032,3.3996,3.3997,3.3977,3.397,3.3965,3.396,3.3942,3.3933,3.4024,3.4024,3.4024,0,0,3.4021,3.4029,3.4021,3.4017,3.402,3.4007,3.4044,3.4029,3.4019,3.4052,3.4029,3.4033,3.4034,3.4003,3.399,3.4004,3.3936,3.396,3.3955,3.3954,3.3937,3.3928,3.3921,3.4021,3.4022,3.4022,0,0,3.3962,3.3967,3.3946,3.3948,3.3952,3.3964,3.3959,3.3968,3.3973,3.3951,3.3975,3.3963,3.3944,3.3944,3.3941,3.3883,3.3901,3.3879,3.3842,3.3824,3.3817,3.3811,3.379,3.3783,3.3874,3.3874,3.3874,0,3.3925,3.3909,3.3931,3.3915,3.3913,3.3944,3.3921,3.3922,3.3922,3.3919,3.3936,3.3913,3.3916,3.3886,3.3872,3.3868,3.3862,3.3878,3.3816,3.381,3.3805,3.3786,3.3778,3.3871,3.3872,3.3872,3.3872,0,3.3864,3.3852,3.3833,3.3836,3.3831,3.3811,3.3829,3.3822,3.3836,3.3846,3.3823,3.3827,3.3819,3.3813,3.3826,3.3785,3.3794,3.3813,3.3842,3.3793,3.3775,3.3768,3.3868,3.3869,3.3869,3.387,0,0,3.3775,3.3791,3.3784,3.3785,3.3793,3.3783,3.3764,3.3759,3.3752,3.3751,3.3736,3.3719,3.3738,3.3734,3.3748,3.3731,3.3686,3.3753,3.3753,3.3741,3.364,3.3626,3.3617,3.3698,3.3697,3.3695,3.364,0,3.372,3.3691,3.3711,3.3679,3.3668,3.3697,3.3681,3.3683,3.3691,3.3682,3.369,3.3678,3.3703,3.3702,3.3687,3.3694,3.3666,3.3699,3.3683,3.3682,3.3683,3.3608,3.3593,3.3541,3.3634,3.3632,3.3632,0,3.3651,3.365,3.3617,3.3627,3.3623,3.3609,3.3605,3.3597,3.3599,3.3606,3.3603,3.362,3.3602,3.3631,3.3605,3.3627,3.3621,3.3624,3.3622,3.3622,3.3654,3.3606,3.3524,3.3517,3.3621,3.3622,3.3622,0,3.3591,3.358,3.356,3.356,3.3571,3.356,3.3564,3.3568,3.3563,3.356,3.3557,3.3551,3.3547,3.3541,3.3556,3.3576,3.3528,3.3558,3.3532,3.3532,3.3521,3.3522,3.3439,3.3517,3.3517,3.3517,3.3517,0,3.3528,3.3506,3.3533,3.352,3.3497,3.3519,3.3495,3.3501,3.3505,3.3493,3.3516,3.3504,3.3525,3.3514,3.3525,3.3502,3.35,3.3504,3.3508,3.3503,3.3502,3.35,3.3504,3.3515,3.3516,3.3516,3.3516,0,3.3457,3.3474,3.3453,3.3466,3.3468,3.3451,3.3461,3.3449,3.3459,3.3443,3.3441,3.3456,3.3445,3.3459,3.3448,3.3456,3.3425,3.3433,3.3425,3.3427,3.3401,3.3404,3.3314,3.3303,3.3388,3.3387,3.3386,0,3.3416,3.3401,3.3412,3.3407,3.341,3.34,3.3396,3.3417,3.3412,3.3413,3.3401,3.3392,3.3386,3.3367,3.3376,3.3368,3.3377,3.3346,3.3375,3.3371,3.3377,3.3378,3.3376,3.3339,3.3338,3.3338,3.3337,0,3.3341,3.335,3.3345,3.3342,3.3338,3.3336,3.3336,3.333,3.3351,3.3344,3.3334,3.3329,3.332,3.331,3.3305,3.3307,3.3325,3.3328,3.3321,3.3316,3.3312,3.3315,3.3409,3.333,3.333,3.3331,3.3331,3.3332,3.3284,3.3273,3.3279,3.3272,3.3275,3.3274,3.3264,3.3273,3.3266,3.3261,3.3272,3.3259,3.3262,3.3257,3.3257,3.3246,3.3259,3.325,3.3248,3.3246,3.3242,3.3314,3.3245,3.3245,3.3246,3.3246,3.3246,0,3.3212,3.3218,3.3211,3.3211,3.3205,3.3224,3.3225,3.3219,3.3208,3.3209,3.3204,3.3192,3.3183,3.3192,3.3184,3.3174,3.3182,3.3171,3.3172,3.3173,3.323,3.3237,3.3165,3.3165,3.3165,3.3165,3.3165,3.3165,3.3173,3.3154,3.3164,3.3146,3.3152,3.3141,3.3139,3.3139,3.314,3.3127,3.312,3.3127,3.313,3.3124,3.3116,3.3119,3.3115,3.3101,3.3107,3.3161,3.3169,3.3176,3.3182,3.31,3.31,3.305,3.305,3.305]}]]